Find Local Weather

World > North America > United States > Florida

Port Saint Lucie, Florida Regional Weather

Lat: 27.28N, Lon: 80.35W
Wx Zone: FLZ059
Warning FLW WEATHER ALERT - SHORTTERM FORECAST (More Info. Click Here) Warning
Feedback
Expires:201810200500;;450020
ASUS42 KTBW 200417
RWRFL 
FLORIDA REGIONAL WEATHER ROUNDUP
NATIONAL WEATHER SERVICE TAMPA BAY RUSKIN FL
1200 AM EDT SAT OCT 20 2018

NOTE: "FAIR" INDICATES FEW OR NO CLOUDS BELOW 12,000 FEET WITH NO
SIGNIFICANT WEATHER AND/OR OBSTRUCTIONS TO VISIBILITY.


FLZ041-047-054-059-064-141-147-200500-
EAST CENTRAL FLORIDA
  
CITY           SKY/WX    TMP DP  RH WIND       PRES   REMARKS
DAYTONA BEACH  MOCLDY    76  75  97 CALM      30.12F                  
DELAND         FAIR      73  72  94 CALM      30.12S                  
JFK SPACE CTR  FAIR      73  71  95 CALM      30.10S                  
CAPE CANAVERAL FAIR      75  72  89 CALM      30.09S                  
PATRICK AFB    FAIR      79  74  84 SE7       30.10S                  
MELBOURNE      FAIR      79  72  79 CALM      30.10S                  
VERO BEACH     FAIR      77  72  84 SE6       30.10F                  
FT PIERCE      FAIR      72  69  90 CALM      30.10F                  
STUART         FAIR      79  72  78 CALM      30.11F                  

STATION/POSITION SKY/WX   TEMP    WIND        PRES    WAVE   SWELL
                          AIR SEA DIR/SP/G            HT/PER HT/PER
                          (F)     (DEG/KT/KT) (MB)    (FT/S) (FT/S)
28.5N   80.2W              82     140/  8/  8 1019.5F   4/ 7   3/ 7
28.9N   78.5W              82 83  130/ 12/ 14 1019.9F
TRIDENT PIER               79 84  100/  4/  6 1020.7S
28.4N   80.5W                 83                N/A     2/ 9
27.5N   80.2W                 83                N/A     3/ 8

$$

SKY/WX - Weather  TMP - Temperature  DP - Dew Point  RH - Relative Humidity
WIND - Wind Direction/Speed PRES - Barometric Pressure